This is the latest recevied weather packets stored in our database for station/object KE5QKR. If no packets are shown the sender has not sent any weather packets the latest 10 day(s).
| Time | Temp. | Humidity | Pressure | Rain* | Wind** | Luminosity | Snow |
|---|---|---|---|---|---|---|---|
| 1777757838 | 21.67° C | 40% | 1013.8 hPa | 1.27 mm | - | 424 W/m² | - |
| 1777757536 | 21.67° C | 40% | 1013.4 hPa | 0 mm | - | 441 W/m² | - |
| 1777757234 | 21.67° C | 40% | 1013.3 hPa | 0 mm | - | 458 W/m² | - |
| 1777756932 | 21.67° C | 39% | 1013.2 hPa | 0 mm | - | 473 W/m² | - |
| 1777756628 | 22.22° C | 41% | 1013.7 hPa | 0 mm | - | 491 W/m² | - |
| 1777756325 | 21.67° C | 41% | 1013.5 hPa | 0 mm | - | 505 W/m² | - |
| 1777756022 | 21.67° C | 41% | 1013.4 hPa | 0 mm | - | 523 W/m² | - |
| 1777755719 | 21.67° C | 42% | 1013.5 hPa | 0 mm | - | 538 W/m² | - |
| 1777755416 | 21.67° C | 43% | 1013.4 hPa | 0 mm | - | 553 W/m² | - |
| 1777755113 | 21.67° C | 39% | 1013.6 hPa | 0 mm | - | 569 W/m² | - |
| 1777754810 | 21.67° C | 42% | 1013.7 hPa | 0 mm | - | 582 W/m² | - |
| 1777754508 | 21.67° C | 44% | 1013.6 hPa | 0 mm | - | 595 W/m² | - |
| 1777754204 | 21.67° C | 42% | 1013.6 hPa | 0 mm | - | 610 W/m² | - |
| 1777753902 | 21.67° C | 42% | 1013.7 hPa | 0 mm | - | 623 W/m² | - |
| 1777753597 | 21.67° C | 42% | 1013.8 hPa | 0 mm | - | 635 W/m² | - |
| 1777753295 | 21.67° C | 40% | 1013.8 hPa | 0 mm | - | 650 W/m² | - |
| 1777752991 | 21.67° C | 41% | 1013.7 hPa | 0 mm | - | 663 W/m² | - |
| 1777752688 | 21.67° C | 43% | 1013.7 hPa | 0 mm | - | 673 W/m² | - |
| 1777752384 | 21.67° C | 41% | 1013.8 hPa | 0 mm | - | 686 W/m² | - |
| 1777752081 | 21.67° C | 41% | 1013.9 hPa | 0 mm | - | 698 W/m² | - |
| 1777751780 | 21.67° C | 45% | 1014.1 hPa | 0 mm | - | 710 W/m² | - |
| 1777751474 | 21.67° C | 43% | 1014 hPa | 0 mm | - | 722 W/m² | - |
| 1777751172 | 21.67° C | 43% | 1014.1 hPa | 0 mm | - | 734 W/m² | - |
| 1777750868 | 21.11° C | 41% | 1014.2 hPa | 0 mm | - | 743 W/m² | - |
| 1777750565 | 21.67° C | 43% | 1014.2 hPa | 0 mm | - | 757 W/m² | - |
* Rain latest hour (hover to see other rain measurements)
** Current wind speed in m/s (hover to see current wind gust speed)